Location: Ostrava
(49.8330°N, 18.2830°E)
Time: 20:35:03
(UTC+02:00)

Cosmos 2221 - Visible Passes

Search period start: 01 September 2014 00:00
Search period end: 11 September 2014 00:00
Orbit: 597 x 623 km, 82.5° (Epoch: 31 August)

Date Brightness Start Highest point End Pass type
(mag) Time Alt. Az. Time Alt. Az. Time Alt. Az.
01 Sep 3.5 22:09:14 35° ENE 22:09:14 35° ENE 22:12:17 10° NNE visible
01 Sep 4.5 23:46:12 24° WNW 23:46:12 24° WNW 23:49:35 10° NNW visible
02 Sep 2.9 22:23:37 53° NE 22:23:37 53° NE 22:27:06 10° NNE visible
03 Sep 5.0 00:00:35 15° WNW 00:00:58 15° WNW 00:03:35 10° NNW visible
03 Sep 4.5 21:01:01 13° ENE 21:01:01 13° ENE 21:02:23 10° NE visible
03 Sep 2.9 22:37:59 62° NNW 22:37:59 62° NNW 22:41:45 10° N visible
04 Sep 4.0 21:15:21 21° ENE 21:15:21 21° ENE 21:17:59 10° NE visible
04 Sep 3.5 22:52:19 43° WNW 22:52:19 43° WNW 22:56:17 10° N visible
05 Sep 3.4 21:29:39 33° ENE 21:29:39 33° ENE 21:33:05 10° NNE visible
05 Sep 4.3 23:06:37 27° WNW 23:06:54 28° WNW 23:10:39 10° N visible
06 Sep 2.6 21:43:55 55° E 21:43:55 55° E 21:47:57 10° NNE visible
06 Sep 4.9 23:20:52 17° W 23:21:46 18° WNW 23:24:46 10° NNW visible
07 Sep 4.5 20:21:12 11° E 20:21:21 11° E 20:22:28 10° ENE visible
07 Sep 2.4 21:58:09 83° SSW 21:58:19 88° W 22:02:39 10° N visible
07 Sep 5.4 23:35:09 10° W 23:36:43 12° WNW 23:38:17 10° NW visible
08 Sep 4.0 20:35:22 18° E 20:35:42 18° E 20:38:35 10° NE visible
08 Sep 3.2 22:12:19 47° WSW 22:12:59 53° WNW 22:17:14 10° N visible
09 Sep 3.4 20:49:29 27° ESE 20:50:08 28° E 20:53:49 10° NNE visible
09 Sep 4.1 22:26:25 27° WSW 22:27:44 32° WNW 22:31:39 10° N visible
10 Sep 2.8 21:03:31 37° SE 21:04:38 46° E 21:08:45 10° NNE visible
10 Sep 4.8 22:40:27 15° WSW 22:42:34 21° WNW 22:45:53 10° NNW visible
